{"data":{"norad_id":69709,"epoch":"2026-09-20T01:27:16.488864Z","epoch_age_seconds":59598,"freshness":"FRESH","line1":"1 69709U 26147F   26263.06060751  .00015571  00000+0  48355-3 0  9991","line2":"2 69709  97.2837 299.3827 0000694  89.9105 270.2217 15.33450871 14160","mean_motion":15.33450871,"eccentricity":6.94e-5,"inclination_deg":97.2837,"raan_deg":299.3827,"arg_perigee_deg":89.9105,"mean_anomaly_deg":270.2217,"bstar":0.00048355,"rev_number":1416,"period_min":93.905845125703,"perigee_km":465.05075637663,"apogee_km":466.0006567603,"semimajor_km":6843.6627065685,"source":"CELESTRAK","updated_at":"2026-09-20T09:00:44.258296Z"}}